Date String (YYYY-MM-DD hh:mm:ss) UTC,Instrument flags,Ambient pressure (hPa),Sample flow (lpm),Bypass flow (lpm),Sample temperature (°C),Ambient temperature (°C),ASC tube jacket temperature (°C),LED temperature (°C),Box temperature (°C),Sample RH (%),Span deviation,Mass concentration (μg/m³),Mass concentration (μg/m³),Mass concentration (μg/m³)
DateTimeUTC,F1_M11,P_M11,Q1_M11,Q2_M11,T1_M11,T2_M11,T3_M11,T4_M11,T5_M11,U1_M11,ZSPAN_M11,X2_M11,X0_M11,X1_M11
2022-05-17 22:00:00,,0823.2,4.99,0.00,28.9,26.5,00.0,37.9,30.8,15.5,0000.0,0004.42,0015.15,0002.88
2022-05-17 22:01:00,,0823.2,5.00,0.00,29.0,26.9,00.0,37.9,30.8,15.6,0000.0,0004.45,0015.65,0002.86
2022-05-17 22:02:00,,0823.2,4.99,0.00,29.0,27.2,00.0,37.9,30.9,15.5,0000.0,0004.51,0015.33,0002.84
2022-05-17 22:03:00,,0823.3,4.99,0.00,29.0,27.5,00.0,38.0,30.9,15.6,0000.0,0004.51,0015.37,0002.81
2022-05-17 22:04:00,,0823.2,5.00,0.00,29.1,27.7,00.0,38.0,31.0,15.4,0000.0,0004.54,0015.28,0002.80
2022-05-17 22:05:00,,0823.3,5.01,0.00,29.1,27.9,00.0,38.0,31.1,15.3,0000.0,0004.56,0015.56,0002.80
2022-05-17 22:06:00,,0823.3,5.01,0.00,29.1,28.0,00.0,38.0,31.1,15.3,0000.0,0004.55,0015.30,0002.78
2022-05-17 22:07:00,,0823.4,5.00,0.00,29.2,28.1,00.0,38.0,31.1,15.3,0000.0,0004.51,0013.36,0002.75
2022-05-17 22:08:00,,0823.4,4.99,0.00,29.2,28.3,00.0,38.1,31.2,15.1,0000.0,0004.39,0013.17,0002.71
2022-05-17 22:09:00,,0823.4,5.00,0.00,29.3,28.4,00.0,38.1,31.3,15.2,0000.0,0004.32,0013.44,0002.70
2022-05-17 22:10:00,,0823.4,5.01,0.00,29.3,27.8,00.0,38.1,31.3,15.0,0000.0,0004.31,0013.19,0002.67
2022-05-17 22:11:00,,0823.4,4.99,0.00,29.3,25.2,00.0,38.0,31.1,15.1,0000.0,0004.38,0013.34,0002.67
2022-05-17 22:12:00,,0823.3,5.00,0.00,29.2,24.1,00.0,38.0,30.9,15.0,0000.0,0004.30,0012.65,0002.66
2022-05-17 22:13:00,,0823.3,5.00,0.00,29.1,24.7,00.0,38.0,30.8,14.9,0000.0,0004.23,0012.04,0002.66
2022-05-17 22:14:00,,0823.3,5.00,0.00,29.0,25.2,00.0,38.0,30.7,15.2,0000.0,0004.19,0011.88,0002.64
2022-05-17 22:15:00,,0823.4,4.99,0.00,29.0,25.7,00.0,38.0,30.7,15.3,0000.0,0004.11,0011.66,0002.61
2022-05-17 22:16:00,,0823.5,5.00,0.00,29.0,26.2,00.0,38.0,30.8,15.4,0000.0,0004.06,0011.49,0002.58
2022-05-17 22:17:00,,0823.6,5.01,0.00,29.0,26.6,00.0,38.0,30.8,15.5,0000.0,0004.02,0011.22,0002.57
2022-05-17 22:18:00,,0823.6,5.00,0.00,29.0,27.0,00.0,38.0,30.9,15.5,0000.0,0003.97,0010.88,0002.56
2022-05-17 22:19:00,,0823.6,4.99,0.00,29.0,27.3,00.0,38.0,30.9,15.5,0000.0,0004.00,0010.71,0002.57
2022-05-17 22:20:00,,0823.7,5.00,0.00,29.0,27.5,00.0,38.0,31.0,15.3,0000.0,0003.99,0010.77,0002.55
2022-05-17 22:21:00,,0823.8,5.00,0.00,29.1,27.7,00.0,38.0,31.0,15.4,0000.0,0003.91,0011.08,0002.55
2022-05-17 22:22:00,,0823.9,4.99,0.00,29.1,27.9,00.0,38.0,31.1,15.5,0000.0,0003.84,0011.44,0002.55
2022-05-17 22:23:00,,0824.0,4.99,0.00,29.2,28.1,00.0,38.0,31.1,15.6,0000.0,0003.87,0011.68,0002.57
2022-05-17 22:24:00,,0824.1,5.01,0.00,29.2,28.2,00.0,38.1,31.2,15.7,0000.0,0003.85,0012.30,0002.58
2022-05-17 22:25:00,,0824.1,5.00,0.00,29.2,28.3,00.0,38.1,31.2,15.8,0000.0,0003.87,0012.48,0002.60
2022-05-17 22:26:00,,0824.3,5.00,0.00,29.3,28.4,00.0,38.1,31.3,15.9,0000.0,0003.93,0012.79,0002.61
2022-05-17 22:27:00,,0824.3,4.98,0.00,29.3,28.5,00.0,38.2,31.3,15.9,0000.0,0003.99,0013.34,0002.62
2022-05-17 22:28:00,,0824.4,5.00,0.00,29.4,28.1,00.0,38.2,31.3,16.0,0000.0,0004.07,0014.96,0002.65
2022-05-17 22:29:00,,0824.5,5.00,0.00,29.3,26.0,00.0,38.1,31.2,16.1,0000.0,0004.15,0016.17,0002.68
2022-05-17 22:30:00,,0824.5,5.01,0.00,29.3,25.5,00.0,38.1,31.1,16.2,0000.0,0004.21,0017.73,0002.71
2022-05-17 22:31:00,,0824.7,4.99,0.00,29.3,25.9,00.0,38.1,31.0,16.2,0000.0,0004.30,0018.02,0002.74
2022-05-17 22:32:00,,0824.6,5.01,0.00,29.2,26.3,00.0,38.1,31.0,16.4,0000.0,0004.35,0017.96,0002.77
2022-05-17 22:33:00,,0824.6,5.01,0.00,29.2,26.7,00.0,38.1,31.0,16.4,0000.0,0004.39,0017.58,0002.75
2022-05-17 22:34:00,,0824.6,5.00,0.00,29.2,27.0,00.0,38.1,31.0,16.4,0000.0,0004.42,0017.55,0002.73
2022-05-17 22:35:00,,0824.5,4.99,0.00,29.2,27.3,00.0,38.1,31.1,16.6,0000.0,0004.46,0016.89,0002.73
2022-05-17 22:36:00,,0824.4,5.00,0.00,29.2,27.6,00.0,38.2,31.1,16.6,0000.0,0004.45,0017.17,0002.71
2022-05-17 22:37:00,,0824.4,5.01,0.00,29.3,27.8,00.0,38.2,31.2,16.7,0000.0,0004.40,0017.11,0002.72
2022-05-17 22:38:00,,0824.4,4.99,0.00,29.3,28.0,00.0,38.2,31.2,16.8,0000.0,0004.38,0016.78,0002.75
2022-05-17 22:39:00,,0824.4,4.99,0.00,29.3,28.2,00.0,38.2,31.3,17.4,0000.0,0004.36,0015.41,0002.75
2022-05-17 22:40:00,,0824.4,5.00,0.00,29.4,28.3,00.0,38.2,31.3,17.3,0000.0,0004.30,0017.12,0002.73
2022-05-17 22:41:00,,0824.5,5.00,0.00,29.4,28.4,00.0,38.3,31.4,17.5,0000.0,0004.24,0017.90,0002.71
2022-05-17 22:42:00,,0824.5,5.01,0.00,29.5,27.9,00.0,38.3,31.4,17.6,0000.0,0004.23,0018.06,0002.69
2022-05-17 22:43:00,,0824.4,5.01,0.00,29.4,25.4,00.0,38.2,31.2,17.2,0000.0,0004.21,0018.78,0002.69
2022-05-17 22:44:00,,0824.4,5.00,0.00,29.3,24.3,00.0,38.1,31.0,17.9,0000.0,0004.19,0019.34,0002.72
2022-05-17 22:45:00,,0824.3,5.00,0.00,29.3,24.8,00.0,38.1,31.0,18.0,0000.0,0004.23,0019.33,0002.75
2022-05-17 22:46:00,,0824.4,5.00,0.00,29.2,25.3,00.0,38.1,30.9,18.5,0000.0,0004.26,0019.93,0002.82
2022-05-17 22:47:00,,0824.4,5.01,0.00,29.1,25.8,00.0,38.1,30.9,18.2,0000.0,0004.32,0020.54,0002.92
2022-05-17 22:48:00,,0824.4,4.98,0.00,29.1,26.3,00.0,38.1,30.9,17.9,0000.0,0004.35,0020.63,0002.99
2022-05-17 22:49:00,,0824.3,5.01,0.00,29.1,26.7,00.0,38.1,30.9,17.5,0000.0,0004.33,0020.53,0003.02
2022-05-17 22:50:00,,0824.4,5.01,0.00,29.1,27.1,00.0,38.1,31.0,17.9,0000.0,0004.34,0020.51,0003.06
2022-05-17 22:51:00,,0824.4,5.00,0.00,29.1,27.3,00.0,38.1,31.0,18.0,0000.0,0004.37,0018.31,0003.11
2022-05-17 22:52:00,,0824.3,5.00,0.00,29.2,27.6,00.0,38.1,31.1,16.8,0000.0,0004.42,0015.99,0003.13
2022-05-17 22:53:00,,0824.3,5.00,0.00,29.2,27.8,00.0,38.1,31.1,17.1,0000.0,0004.39,0015.15,0003.14
2022-05-17 22:54:00,,0824.3,4.99,0.00,29.2,28.0,00.0,38.2,31.2,17.7,0000.0,0004.47,0014.40,0003.16
2022-05-17 22:55:00,,0824.3,5.01,0.00,29.3,28.1,00.0,38.2,31.2,16.8,0000.0,0004.49,0014.25,0003.16
2022-05-17 22:56:00,,0824.3,5.00,0.00,29.3,28.3,00.0,38.2,31.3,16.6,0000.0,0004.49,0014.33,0003.15
2022-05-17 22:57:00,,0824.3,5.00,0.00,29.3,28.4,00.0,38.2,31.3,16.9,0000.0,0004.43,0014.28,0003.13
2022-05-17 22:58:00,,0824.3,5.00,0.00,29.4,28.5,00.0,38.3,31.4,17.2,0000.0,0004.35,0013.32,0003.07
2022-05-17 22:59:00,,0824.2,4.99,0.00,29.4,28.5,00.0,38.3,31.4,16.9,0000.0,0004.33,0013.24,0003.02
